Torna al catalogo

CZ-6A DEB

AttivoPO
NORAD 61134·DEBRIS·🇨🇳 China

Lanciato Aug 6, 2024 da Taiyuan Satellite Launch Center

Loading…

Prossimi Passaggi (prossime 24 ore)

TLE

AggiornatoSource: Space-Track

Epoca: Sep 14, 2026, 00:25 UTC

1 61134U 24140QC  26257.01767532  .00002430  00000-0  12618-2 0  9998
2 61134  88.9814 264.7647 0108200 328.4618  31.0110 14.11521132105962

Traccia CZ-6A DEB in tempo reale con AllMySat

Download on the App Store